Regional Weather Roundup
Issued by NWS Goodland, KS

Home | Current Version | Previous Version | Graphics & Text | Print | Product List | Glossary On
Versions: 1 2 3 4 5 6 7 8 9 10 11 12 13 14 15 16 17 18 19 20 21 22 23 24 25 26 27 28 29 30 31 32 33 34 35 36 37 38 39 40 41 42 43 44 45 46 47 48 49 50
000
ASUS43 KGLD 162259
RWRGLD

GOODLAND FORECAST AREA HOURLY WEATHER ROUNDUP
NATIONAL WEATHER SERVICE GOODLAND KS
500 PM MDT WED APR 16 2014

...OFFICIAL OBSERVATIONS...

CITY           SKY/WX    TMP DP  RH WIND       PRES   REMARKS
GOODLAND KS    CLOUDY    54  28  36 N26G32    29.94R
HILL CITY KS   PTSUNNY   58  32  37 N24G31    29.94R
IMPERIAL NEB   MOSUNNY   53  32  44 N20       29.96R
MCCOOK NEB     CLOUDY    54  34  46 N16       29.94R
AKRON CO       PTSUNNY   50  22  33 N23       29.93S
BURLINGTON CO  CLOUDY    52  27  38 NE23      29.95R
LIMON CO       CLOUDY    49  21  33 NE16G25   29.96R
$$

...UNOFFICIAL OBSERVATIONS...

CITY           SKY/WX    TMP DP  RH WIND       PRES   REMARKS
COLBY KS       MOSUNNY   55  36  47 N18       29.93R
GOVE KS          N/A     59  32  36 N10G21      N/A
LENORA KS        N/A     54  32  43 N22         N/A
LEOTI KS         N/A     59  32  35 NE9         N/A
NORTON KS      SUNNY     54  34  47 N17G24    29.92R
SHARON SPRINGS   N/A     56  30  37 NE18        N/A
WAKEENEY KS      N/A     60  28  30 MISG        N/A
TRENTON NEB      N/A     53  32  45 NW17        N/A
KIT CARSON CO    N/A     53  25  33 MISG        N/A
$$



USA.gov is the U.S. government's official web portal to all federal, state and local government web resources and services.